STARLINK-5710, 55616

Orbit data source: Space-Track

STARLINK-5710, 55616 is a payload satellite owned by SpaceX/Seattle (US) in LEO that was launched on Sun, 12 Feb 2023 UTC via an FALCON 9 launch vehicle from the Air Force Eastern Test Range (AFETR). Payload-class satellites include a variety of spacecraft equipped with specific instruments for various scientific and technological missions. These include communications satellites like Starlink; space stations such as the ISS; scientific satellites like the Hubble; Earth observation satellites from companies like Planet Labs, Umbra, and HawkEye 360; GPS; miniature CubeSats for education and research; and military/defense satellites.

Loading next visibility...
Identifier
55616, 2023-020AZ
Orbit
LEO
Country
Flag of USUS
Related business
Manufacturer
SpaceX/Seattle
Mission
Operational Commercial Communications
Bus & Motor
STARLINK, Unknown motor
Mass
305 kg wet, ~290 kg dry
Launch date (UTC)
2023-02-12 (3 years ago)
Launch vehicle
FALCON 9
Launch site
Air Force Eastern Test Range (AFETR)
Object type
Payload
Rocket body
Debris
Shape & HBR
Box + 1 Pan, 10.1 m
Radar Cross Section
13.562 m², Large (>1 m²)

Expand to show TLE details & history
Last TLE update: 20 hours ago

TLE from 20 hours ago
0 STARLINK-5710
1 55616U 23020AZ  25340.70449784  .00000235  00000-0  32464-4 0  9990
2 55616  43.0026 136.7711 0001331 269.5794  90.4896 15.02533250155087
Epoch: 2025-12-06T16:54Z
TLE epoch observation values (Epoch: 2025-12-06T16:54:28.613Z)
Latitude
-0°
Longitude
167.42346°
Altitude
558.874 km
Speed
7.584 km/s
True Right ascension
09h 07m 05s
True Declination
0° 00' 00"
Sunlit
Object was in full shadow at epoch
Visualization orbit readout
Latitude
Unknown
Longitude
Unknown
Altitude
Unknown
Speed
Unknown
Apparent Right ascension
Unknown
Apparent Declination
Unknown
Sunlit
N/A
Visualization observer readout
Local Sidereal Time
11:04:27
Azimuth
Unknown
Elevation
Unknown
Doppler factor
Unknown
Orbital elements
Apogee altitude
561.935 km
Perigee altitude
560.088 km
Semi-major axis
6,939.149 km
Eccentricity
0.00013
Inclination
43.0026°
RAAN
136.7711°
Arg. of periapsis
269.5794°
True anomaly
90.50485°
Mean anomaly
90.4896°
Eccentric anomaly
90.49723°
Mean motion
3.75477 °/min
Orbital period
95.88 mins
BSTAR
0.000032464
Loading maneuver chart data...
Computing Atmospheric mass density...
Loading historical data...
Loading historical data...
Loading historical data...
Loading historical data...
Loading historical data...
Loading historical data...
Loading historical data...

Documentation

Showing up to 5 results
|